Terminal Aerodrome Forecast
Issued by NWS

Home | Current Version | Previous Version | Text Only | Print | Product List | Glossary On
Versions: 1 2 3 4 5 6 7 8 9 10 11 12 13 14 15 16 17 18 19 20 21 22 23 24
000
FTUS44 KOUN 300537
TAFHBR
TAF
KHBR 300537Z 3006/3106 04007KT P6SM BKN110
     FM301900 15007KT P6SM OVC070 PROB30 3103/3106 6SM -RA BKN040=

USA.gov is the U.S. government's official web portal to all federal, state and local government web resources and services.